Location: Calvin Observatory
(42.9309°N, 85.5886°W)
Time: 00:45:22
(UTC-05:00)

ISS - Visible Passes

Search period start: 23 November 2014 00:00
Search period end: 03 December 2014 00:00
Orbit: 408 x 417 km, 51.6° (Epoch: 23 November)

Date Brightness Start Highest point End Pass type
(mag) Time Alt. Az. Time Alt. Az. Time Alt. Az.
23 Nov -0.6 05:19:38 15° NE 05:19:38 15° NE 05:20:42 10° ENE visible
23 Nov -2.8 06:52:28 12° NW 06:55:23 53° NNE 06:58:38 10° ESE visible
24 Nov -2.2 06:04:49 31° N 06:05:34 35° NNE 06:08:39 10° E visible
25 Nov -0.7 05:17:10 19° ENE 05:17:10 19° ENE 05:18:31 10° ENE visible
25 Nov -3.2 06:49:59 16° WNW 06:52:31 64° SW 06:55:47 10° SE visible
26 Nov -3.3 06:02:20 64° NNW 06:02:42 74° NNE 06:06:00 10° ESE visible
27 Nov -0.6 05:14:42 21° E 05:14:42 21° E 05:15:58 10° ESE visible
27 Nov -1.9 06:47:31 16° W 06:49:16 25° SW 06:52:01 10° SSE visible
28 Nov -2.5 05:59:54 40° SSW 05:59:54 40° SSW 06:02:36 10° SSE visible
29 Nov -0.2 05:12:18 14° SE 05:12:18 14° SE 05:12:48 10° SE visible
30 Nov -0.7 05:57:34 12° S 05:57:34 12° S 05:58:04 10° S visible
